User: anonymous   Login
Location: Pcim
(49.7500°N, 19.9670°E)
Time: 06:02:59
(UTC+02:00)
Language:

Oscar 19 - Orbit

View from above orbital plane
View from above orbital plane
View from above satellite
View from above satellite

Ground track
Ground track

The orbit data is extracted from the following two-line orbital elements,

1 20442U 90005G   24106.47547110  .00000414  00000-0  16648-3 0  9995
2 20442  98.8807  95.1043 0011987  15.1456 345.0084 14.33485653788799
Epoch (UTC): 15 April 2024 11:24:40
Eccentricity: 0.0011987
inclination: 98.8807°
perigee height: 771 km
apogee height: 788 km
right ascension of ascending node: 95.1043°
argument of perigee: 15.1456°
revolutions per day: 14.33485653
mean anomaly at epoch: 345.0084°
orbit number at epoch: 78879

The dashed part of the orbit path shows where the satellite is in the earth's shadow,  

DLR